| time (UTC) | temp F | wind direction | speed knots | gust knots | rain 1hr in | rain 24hr in | rain mn in | humidity % | barometer mb |
| 20260507164000 | 52 | 350 | 4.3 | 7.0 | 0.00 | 0.00 | 0.00 | 84 | 1019.1 |
| 20260507153358 | 50 | 5 | 2.6 | 5.2 | 0.00 | 0.00 | 0.00 | 88 | 1019.1 |
| 20260507131058 | 48 | 13 | 2.6 | 4.3 | 0.00 | 0.00 | 0.00 | 91 | 1018.9 |
| 20260507122657 | 48 | 12 | 2.6 | 3.5 | 0.00 | 0.00 | 0.00 | 91 | 1018.9 |
| 20260507113157 | 49 | 5 | 3.5 | 5.2 | 0.00 | 0.00 | 0.00 | 90 | 1019.3 |
| 20260507105858 | 49 | 11 | 3.5 | 5.2 | 0.00 | 0.00 | 0.00 | 89 | 1019.3 |
| 20260507084656 | 50 | 16 | 4.3 | 7.0 | 0.00 | 0.00 | 0.00 | 89 | 1020.0 |
| 20260507081357 | 51 | 360 | 3.5 | 5.2 | 0.00 | 0.00 | 0.00 | 89 | 1019.9 |
| 20260507080256 | 51 | 355 | 2.6 | 4.3 | 0.00 | 0.00 | 0.00 | 89 | 1019.9 |
| 20260507075157 | 51 | 355 | 2.6 | 4.3 | 0.00 | 0.00 | 0.00 | 89 | 1019.9 |
| 20260507074056 | 51 | 355 | 2.6 | 4.3 | 0.00 | 0.00 | 0.00 | 89 | 1019.9 |
| 20260507070756 | 51 | 330 | 1.7 | 3.5 | 0.00 | 0.00 | 0.00 | 89 | 1019.8 |
| 20260507065656 | 51 | 322 | 1.7 | 3.5 | 0.00 | 0.00 | 0.00 | 89 | 1019.9 |
| 20260507064556 | 51 | 319 | 2.6 | 4.3 | 0.00 | 0.00 | 0.00 | 88 | 1019.9 |
| 20260507062356 | 52 | 325 | 1.7 | 3.5 | 0.00 | 0.00 | 0.00 | 88 | 1019.9 |
| 20260507061256 | 52 | 324 | 2.6 | 5.2 | 0.00 | 0.00 | 0.00 | 87 | 1019.9 |
| 20260507060156 | 52 | 296 | 0.0 | 3.5 | 0.00 | 0.00 | 0.00 | 87 | 1019.9 |
| 20260507055056 | 53 | 234 | 0.9 | 2.6 | 0.00 | 0.00 | 0.00 | 87 | 1019.9 |
| 20260507052856 | 53 | 232 | 0.0 | 0.0 | 0.00 | 0.00 | 0.00 | 86 | 1019.9 |
| 20260507051756 | 53 | 232 | 0.9 | 1.7 | 0.00 | 0.00 | 0.00 | 87 | 1020.0 |
| 20260507050656 | 53 | 232 | 0.9 | 1.7 | 0.00 | 0.00 | 0.00 | 86 | 1020.0 |
| 20260507045556 | 53 | 232 | 0.9 | 2.6 | 0.00 | 0.00 | 0.00 | 86 | 1020.0 |
| 20260507042257 | 54 | 205 | 1.7 | 2.6 | 0.00 | 0.00 | 0.00 | 85 | 1019.8 |
| 20260507035000 | 55 | 231 | 2.6 | 5.2 | 0.00 | 0.00 | 0.00 | 84 | 1019.5 |
| 20260507033857 | 55 | 217 | 3.5 | 5.2 | 0.00 | 0.00 | 0.00 | 83 | 1019.2 |
| 20260507032757 | 56 | 223 | 2.6 | 5.2 | 0.00 | 0.00 | 0.00 | 82 | 1019.1 |
| 20260507031658 | 57 | 269 | 2.6 | 6.1 | 0.00 | 0.00 | 0.00 | 81 | 1019.1 |
| 20260507030557 | 58 | 275 | 3.5 | 7.0 | 0.00 | 0.00 | 0.00 | 81 | 1019.1 |
| 20260507025500 | 59 | 261 | 3.5 | 6.1 | 0.00 | 0.00 | 0.00 | 80 | 1019.0 |
| 20260507024358 | 60 | 290 | 3.5 | 7.8 | 0.00 | 0.00 | 0.00 | 78 | 1018.9 |
| 20260507023256 | 61 | 259 | 5.2 | 7.8 | 0.00 | 0.00 | 0.00 | 77 | 1018.9 |
| 20260507022156 | 62 | 271 | 5.2 | 10.4 | 0.00 | 0.00 | 0.00 | 75 | 1018.9 |
| 20260507020001 | 64 | 317 | 1.7 | 4.3 | 0.00 | 0.00 | 0.00 | 76 | 1018.9 |
| 20260507014856 | 63 | 283 | 2.6 | 6.1 | 0.00 | 0.00 | 0.00 | 74 | 1018.9 |
| 20260507013756 | 63 | 5 | 2.6 | 3.5 | 0.00 | 0.00 | 0.00 | 75 | 1018.9 |
| 20260507012656 | 63 | 306 | 0.9 | 2.6 | 0.00 | 0.00 | 0.00 | 75 | 1018.9 |
| 20260507011556 | 64 | 306 | 1.7 | 3.5 | 0.00 | 0.00 | 0.00 | 73 | 1018.9 |
| 20260507010500 | 64 | 296 | 3.5 | 5.2 | 0.00 | 0.00 | 0.00 | 74 | 1019.0 |
| 20260507005356 | 64 | 267 | 3.5 | 6.1 | 0.00 | 0.00 | 0.00 | 70 | 1019.0 |
| 20260507004256 | 65 | 250 | 3.5 | 7.8 | 0.00 | 0.00 | 0.00 | 72 | 1019.1 |
| 20260507003156 | 66 | 173 | 3.5 | 7.0 | 0.00 | 0.00 | 0.00 | 74 | 1019.1 |
| 20260507002056 | 65 | 355 | 3.5 | 5.2 | 0.00 | 0.00 | 0.00 | 74 | 1019.0 |
| 20260506234756 | 63 | 267 | 5.2 | 9.6 | 0.00 | 0.00 | 0.00 | 74 | 1019.1 |
| 20260506233656 | 64 | 316 | 5.2 | 9.6 | 0.00 | 0.00 | 0.00 | 74 | 1019.1 |
| 20260506232556 | 64 | 306 | 3.5 | 9.6 | 0.00 | 0.00 | 0.00 | 75 | 1019.2 |
| 20260506230356 | 64 | 253 | 4.3 | 10.4 | 0.00 | 0.00 | 0.00 | 76 | 1019.2 |
| 20260506225256 | 64 | 322 | 3.5 | 7.8 | 0.00 | 0.00 | 0.00 | 77 | 1019.2 |
| 20260506224156 | 63 | 294 | 6.1 | 10.4 | 0.00 | 0.00 | 0.00 | 78 | 1019.3 |
| 20260506223056 | 63 | 268 | 3.5 | 8.7 | 0.00 | 0.00 | 0.00 | 78 | 1019.3 |
| 20260506220856 | 62 | 278 | 4.3 | 8.7 | 0.00 | 0.00 | 0.00 | 80 | 1019.6 |
| 20260506215756 | 62 | 305 | 4.3 | 7.8 | 0.00 | 0.00 | 0.00 | 81 | 1019.6 |
| 20260506214656 | 61 | 253 | 2.6 | 7.0 | 0.00 | 0.00 | 0.00 | 79 | 1019.6 |
| 20260506211356 | 59 | 323 | 2.6 | 7.0 | 0.00 | 0.00 | 0.00 | 85 | 1019.7 |
| 20260506205156 | 59 | 341 | 4.3 | 8.7 | 0.00 | 0.00 | 0.00 | 85 | 1020.0 |
| 20260506204056 | 59 | 331 | 3.5 | 7.0 | 0.00 | 0.00 | 0.00 | 85 | 1020.0 |
| 20260506201856 | 59 | 261 | 3.5 | 7.0 | 0.00 | 0.00 | 0.00 | 83 | 1020.1 |
| 20260506200756 | 58 | 276 | 0.9 | 3.5 | 0.00 | 0.00 | 0.00 | 85 | 1020.0 |
| 20260506195656 | 57 | 219 | 2.6 | 6.1 | 0.00 | 0.00 | 0.00 | 86 | 1020.1 |
| 20260506194556 | 57 | 224 | 4.3 | 9.6 | 0.00 | 0.00 | 0.00 | 86 | 1020.0 |
| 20260506192356 | 56 | 281 | 1.7 | 4.3 | 0.00 | 0.00 | 0.00 | 90 | 1020.0 |
| 20260506191256 | 55 | 281 | 1.7 | 4.3 | 0.00 | 0.00 | 0.00 | 91 | 1020.2 |
| 20260506190156 | 55 | 338 | 2.6 | 5.2 | 0.00 | 0.00 | 0.00 | 91 | 1020.2 |
| 20260506185056 | 55 | 247 | 2.6 | 7.0 | 0.00 | 0.00 | 0.00 | 91 | 1020.1 |
| 20260506184000 | 54 | 240 | 1.7 | 3.5 | 0.00 | 0.00 | 0.00 | 91 | 1020.0 |
| 20260506182856 | 54 | 274 | 2.6 | 6.1 | 0.00 | 0.00 | 0.00 | 91 | 1019.9 |
| 20260506181756 | 54 | 199 | 0.9 | 2.6 | 0.00 | 0.00 | 0.00 | 93 | 1019.8 |
| 20260506180656 | 53 | 267 | 2.6 | 6.1 | 0.00 | 0.00 | 0.00 | 92 | 1019.9 |
| 20260506175556 | 53 | 321 | 3.5 | 7.0 | 0.00 | 0.00 | 0.00 | 93 | 1020.0 |
| 20260506173356 | 53 | 298 | 5.2 | 8.7 | 0.00 | 0.00 | 0.00 | 92 | 1020.0 |